CAPE
457 377 51 2 131 258 137 132 98 126 160 219 157 169 189 590 406 405 614 472 645 1050 1636 1963 2575 1989 1881 1899 1891 1815 1578 1404 1394 1725 1873 2277 2209 2209 2137 2214 2040 2081 1787 1685 1603 1640 1659 1652 1659
490 484 6 31 180 189 129 141 129 236 209 210 233 241 366 562 648 694 562 733 802 1154 1368 1713 2308 2265 1687 1800 1865 1649 1695 1719 1612 1463 1808 2237 2307 2286 2151 2240 2145 1961 1534 1577 1718 1589 1465 1599 1760
773 230 2 58 122 181 209 103 100 120 130 178 223 201 185 320 575 672 817 995 1013 1225 1318 1288 1966 1795 1635 1635 1556 1568 1650 1661 1712 1533 1583 2229 2347 2164 2121 2164 2078 2147 1898 2005 1719 1660 1734 1571 1551
123 0 0 45 96 27 30 41 55 68 152 190 218 264 272 436 511 672 953 987 1246 1251 1298 2013 2130 1840 1692 1524 1412 1501 1737 1868 1655 1328 1524 1953 2329 2118 2140 2096 2136 2195 2231 2080 1828 1718 1656 1653 1487
150 24 31 29 22 20 16 74 123 116 142 155 73 196 216 297 488 815 822 853 953 1148 1394 1463 2220 1731 1362 1525 1399 1290 1872 1880 1879 1476 1625 1949 1964 1966 2042 2154 2273 1950 1630 1553 1527 1430 1367 1554 1589
0 8 3 20 41 24 34 95 152 124 99 44 105 104 175 325 636 535 674 792 810 949 1316 1543 1888 1709 1876 1494 1000 824 1687 1827 1694 1869 1816 1849 2059 2040 2084 2087 2261 1732 1407 1397 1406 1460 1708 1555 1842
3 4 0 20 31 78 42 152 308 73 3 7 45 85 90 367 320 432 638 807 820 1311 1531 1377 1490 1410 1454 1223 938 737 1259 1809 1609 1695 1764 1593 1933 1940 1985 1970 1762 1450 1462 1458 1706 1739 1531 1642 1918
76 9 12 69 74 73 96 483 250 27 29 2 1 0 156 251 299 339 522 699 869 900 1404 1680 1337 1490 1462 885 34 885 1633 1739 1661 2000 1862 2092 1853 1910 2312 2434 1702 1434 1410 1410 1444 1507 1623 2291 2510
111 131 56 17 29 83 104 109 38 53 14 22 50 0 18 179 245 298 439 456 569 716 963 1284 1427 1387 1836 1456 523 1757 1706 1760 1847 1806 2040 1934 2012 1784 1636 1681 1631 1873 1818 1768 1784 1858 2122 2021 1509
140 183 89 44 11 39 178 188 235 59 15 50 63 0 0 118 195 199 278 317 252 329 879 1301 1287 1408 1585 1771 2103 2016 1781 2121 2104 1706 1784 2329 2195 2063 1575 1726 2012 1839 1937 1716 1718 1944 2168 1183 1040
331 175 298 273 1 138 109 83 128 69 16 32 1 17 0 53 130 153 250 245 228 219 418 1033 996 1040 1343 1408 1384 1744 1169 1497 1314 1228 2071 1952 1965 1760 1761 1927 1785 1633 1482 1266 861 873 1057 1236 292
368 451 690 249 45 76 65 154 124 36 42 49 15 32 19 54 71 85 119 88 92 87 276 560 509 721 1151 1178 467 668 752 757 1253 1835 1970 1844 1500 1635 1380 1238 1453 1311 972 905 1159 1044 1381 1655 1481
103 217 495 208 95 33 32 80 171 41 53 68 41 55 17 39 70 77 77 50 57 31 68 194 442 575 936 958 209 299 365 305 790 995 1143 777 1428 1388 1108 949 793 895 1214 1306 1664 1795 1602 1781 1753
452 665 245 235 320 227 22 25 82 112 65 105 81 58 53 33 52 67 43 29 15 6 13 20 150 309 467 535 171 100 107 471 553 518 805 770 1030 1350 930 850 747 1272 1063 996 1604 1746 1814 1844 1678
480 530 535 192 164 145 206 109 103 70 101 69 87 76 49 48 28 31 12 4 0 0 15 19 29 63 245 279 74 152 171 388 316 398 192 272 591 1358 1125 1001 1185 1256 709 1207 1658 1723 1917 1705 1642
456 186 294 414 391 328 133 162 194 87 127 136 108 87 52 36 35 24 8 7 0 0 27 0 0 15 107 263 117 26 40 112 139 550 217 233 524 973 1263 1036 1062 838 964 1479 1327 1472 1927 1299 1666
82 4 123 44 436 451 238 240 118 94 111 100 95 105 82 67 29 4 0 9 6 0 20 0 0 46 50 162 89 120 183 248 223 509 784 892 292 574 657 693 916 648 1205 856 849 1786 1895 1445 1253
0 2 4 0 371 508 446 339 60 155 71 65 79 101 97 87 97 91 16 9 18 9 0 124 0 36 68 73 101 100 112 144 286 483 802 908 498 518 550 366 512 644 1140 1375 1094 1793 1431 1232 1021
0 0 0 0 342 391 488 345 285 279 231 127 205 139 72 83 106 113 91 11 11 48 40 124 67 33 40 46 65 69 101 171 292 467 769 809 783 277 834 388 359 691 930 1811 1194 2176 1732 1019 684
0 0 0 14 390 340 417 526 451 215 359 331 349 244 139 73 101 27 69 52 59 116 198 191 126 101 105 25 80 107 179 218 371 752 1073 930 857 486 458 412 343 745 882 2336 2029 2560 1837 1383 964
0 0 0 0 439 306 579 576 688 529 288 252 231 216 175 158 74 57 24 54 98 167 259 314 258 152 107 16 59 241 336 745 724 1003 1020 811 675 304 302 248 318 549 1057 1900 2608 2531 2294 1438 1281
0 0 0 0 44 47 574 343 249 572 570 275 105 110 129 200 136 49 61 73 98 228 276 466 494 254 162 65 47 348 447 576 885 1272 1105 950 611 367 281 372 249 343 1292 2099 2202 2288 1845 1189 1274
0 0 0 8 57 346 358 416 314 131 296 437 312 100 93 152 148 67 88 161 190 305 371 514 690 576 277 172 109 302 721 827 1083 1124 1585 1394 940 592 521 751 123 237 2039 2304 2020 2649 2142 1134 1352
0 60 70 203 306 190 67 240 0 113 308 287 267 262 102 101 152 202 15 211 339 387 463 547 673 858 618 405 223 343 676 981 861 1333 1452 1452 1137 768 756 962 974 538 1548 2471 2311 2286 2375 2214 2146
0 1 0 6 138 0 5 27 4 16 75 104 174 294 188 96 102 237 82 11 288 417 254 598 335 129 593 462 540 539 627 1137 1350 1565 1351 1501 1377 1162 1176 1490 1430 1428 1440 2075 2475 2530 2406 2492 2357
0 0 0 0 0 0 175 68 12 48 63 76 62 33 163 126 108 193 215 149 222 350 491 551 560 406 162 195 731 894 949 793 1045 1248 1213 1437 1453 1465 1609 1777 1681 1747 1927 2092 2425 2289 2180 2176 2303
0 0 0 0 0 0 0 61 0 2 42 90 82 71 72 151 122 229 260 332 375 391 458 616 262 96 384 570 875 967 1017 910 967 1160 1228 1267 1766 1531 1841 1882 1951 2043 2067 2190 2380 2650 2577 2363 2354
0 0 0 0 0 0 0 0 0 0 0 72 287 237 174 167 191 264 295 414 421 468 477 549 390 479 722 796 903 876 895 1006 997 1126 1200 1328 1454 1795 1732 1897 1903 2067 2114 2199 2314 2163 2530 2487 2132
0 0 0 0 0 0 0 0 0 4 58 137 434 293 259 249 258 306 375 477 660 596 629 644 652 627 833 615 941 947 833 895 1095 1170 1264 1262 1516 1660 1891 1983 2015 2047 2072 2199 2466 2418 2441 2076 2276
0 0 0 0 0 0 0 0 0 12 120 152 614 499 448 317 317 413 433 586 687 765 780 949 920 883 866 706 896 829 822 901 887 1122 1272 1512 1662 1655 1724 1979 2079 2130 2133 2237 2403 2173 1929 2258 2132
CIN
-150 -127 -269 -31 -102 -43 -62 -35 -23 -28 -40 -73 -57 -53 -41 -58 -50 -33 -71 -105 -82 -45 -9 0 0 0 -1 -1 -1 0 0 0 0 0 0 0 -1 -1 -3 0 0 0 0 -2 0 -2 -3 -4 -8
-142 -139 -190 -209 -32 -22 -26 -53 -25 -65 -85 -71 -61 -62 -52 -49 -77 -80 -79 -36 -40 -24 -3 0 -1 0 0 0 -1 0 0 0 0 0 0 0 0 0 0 0 0 0 0 0 0 -1 -7 -9 -13
-94 -233 -86 -109 -60 -32 -15 -66 -50 -70 -76 -49 -42 -80 -82 -79 -71 -65 -42 -2 -7 -8 -13 -8 -1 -2 -2 -5 0 0 0 0 -2 0 0 0 0 0 0 0 0 0 0 0 0 0 -4 -13 -14
-146 0 0 -61 -59 -75 -70 -76 -44 -49 -52 -61 -68 -44 -59 -49 -50 -42 -13 0 0 -5 -5 0 0 0 0 0 -3 -5 0 0 0 0 -3 0 0 0 0 0 0 0 0 0 -1 -12 -15 -10 -19
-149 -142 -66 -41 -51 -43 -44 -95 -59 -35 -41 -59 -82 -53 -51 -58 -38 0 -2 0 0 0 0 0 0 0 0 -7 -7 -7 -2 0 0 -1 -2 0 0 0 0 0 0 0 0 -7 -20 -20 -31 -23 -29
0 -102 -11 -33 -40 -48 -62 -103 -66 -48 -64 -92 -90 -66 -42 -37 -2 -8 -6 -3 -1 -2 0 0 0 0 0 -5 -6 -10 0 -1 -6 -2 0 -3 -2 0 0 0 0 0 -9 -22 -20 -21 -17 -36 -31
-45 -105 0 -2 -19 -23 -87 -94 -47 -55 -7 -64 -87 -45 -62 -4 -18 -15 -5 -1 0 0 0 0 0 -1 -2 -2 -9 -12 -2 -1 -1 -3 -5 -5 -3 0 0 0 0 -1 -14 -22 -10 -14 -32 -36 -28
-153 -146 -16 -33 -33 -43 -81 -35 -44 -29 -63 -66 -4 0 -29 -28 -12 -9 -3 -1 0 0 0 0 0 0 0 -3 -36 -22 -2 -2 -4 0 -1 0 -1 0 0 0 0 -4 -12 -13 -18 -25 -33 -17 -11
-178 -52 -50 -39 -64 -62 -83 -61 -85 -89 -63 -65 -59 0 -44 -72 -37 -7 0 0 0 0 0 0 -3 -11 0 0 -39 -1 -3 -2 0 -1 -1 -4 0 0 0 0 0 0 -1 -1 -7 -16 -17 -28 -68
-121 -47 -41 -14 -73 -69 -55 -71 -74 -78 -75 -54 -72 0 0 -79 -45 -26 -10 -5 -4 0 0 0 -2 -3 0 -1 0 0 -6 0 -1 -18 -14 -5 0 0 0 0 0 0 -2 -7 -16 -19 -20 -51 -58
-89 -38 -29 -32 -8 -55 -69 -80 -98 -66 -48 -38 -4 -58 0 -79 -48 -30 -10 -10 -1 0 0 0 -1 -3 -1 -9 -10 -1 -19 -2 -17 -30 -3 0 0 0 0 0 0 -3 -25 -34 -37 -45 -31 -55 -146
-53 -45 -21 -41 -101 -56 -72 -80 -67 -95 -104 -61 -60 -66 -85 -76 -61 -52 -33 -36 -38 -15 0 0 -2 -3 -4 -4 -21 -19 -20 -21 -26 -8 -3 -4 0 -1 0 -18 -22 -30 -45 -71 -41 -28 -48 -35 -80
-40 -45 -44 -70 -70 -78 -41 -43 -31 -71 -96 -71 -74 -74 -72 -71 -67 -66 -59 -60 -57 -44 -13 0 0 -3 -7 -9 -29 -25 -44 -49 -27 -26 -28 -65 -10 -13 -19 -42 -58 -58 -52 -42 -31 -36 -38 -52 -51
-57 -36 -61 -79 -68 -71 -67 -71 -66 -90 -77 -63 -63 -50 -66 -74 -76 -79 -91 -89 -93 -20 -23 -15 -3 -2 -5 -4 -50 -65 -106 -65 -61 -70 -55 -63 -46 -23 -32 -44 -50 -40 -68 -84 -59 -47 -37 -46 -49
-63 -31 -46 -70 -81 -72 -45 -43 -72 -101 -90 -104 -58 -48 -57 -79 -87 -73 -77 -76 0 0 -28 -22 -28 -2 -29 -14 -77 -67 -71 -55 -87 -107 -55 -54 -123 -43 -39 -39 -44 -53 -133 -127 -69 -61 -57 -47 -58
-46 -75 -27 -53 -48 -56 -45 -25 -42 -86 -54 -48 -49 -53 -60 -73 -68 -68 -70 -77 -16 0 -37 0 0 -19 -5 -11 -48 -104 -124 -116 -132 -76 -147 -161 -109 -73 -50 -47 -48 -84 -95 -64 -57 -43 -33 -50 -43
-89 -25 -57 -96 -50 -19 -30 -25 -41 -82 -50 -46 -39 -45 -64 -58 -75 -21 0 -89 -95 0 -78 0 0 -14 -25 -17 -54 -39 -52 -48 -107 -79 -63 -55 -100 -99 -86 -73 -75 -125 -66 -73 -65 -44 -47 -46 -55
0 -16 -25 0 -83 -51 -31 -35 -92 -72 -66 -76 -56 -31 -44 -58 -65 -54 -71 -73 -88 -99 0 -64 0 -45 -45 -35 -31 -48 -58 -49 -62 -45 -33 -56 -84 -99 -115 -118 -118 -115 -64 -48 -75 -56 -77 -73 -67
0 0 0 0 -106 -83 -59 -76 -54 -67 -68 -70 -60 -48 -62 -72 -46 -47 -51 -65 -91 -124 -116 -95 -99 -84 -82 -103 -76 -49 -86 -66 -49 -40 -53 -74 -91 -155 -93 -103 -138 -106 -77 -50 -81 -40 -48 -57 -131
0 0 0 -65 -119 -91 -78 -81 -84 -145 -127 -92 -70 -62 -67 -65 -61 -45 -62 -80 -86 -97 -97 -97 -86 -93 -102 -128 -103 -75 -65 -65 -37 -33 -43 -66 -89 -142 -133 -134 -129 -103 -66 -39 -49 -42 -25 -49 -87
0 0 0 0 -95 -110 -66 -56 -82 -124 -189 -141 -136 -122 -87 -62 -55 -75 -72 -95 -92 -102 -109 -119 -111 -111 -111 -69 -120 -64 -40 -28 -32 -29 -37 -80 -109 -143 -155 -169 -155 -123 -77 -18 -21 -31 -33 -17 -67
0 0 0 0 -64 -30 -61 -23 -105 -123 -158 -197 -179 -181 -139 -114 -98 -89 -67 -94 -102 -117 -95 -96 -96 -119 -115 -143 -140 -67 -36 -22 -22 -22 -26 -53 -112 -118 -122 -143 -153 -142 -50 -28 -19 -26 -37 -61 -16
0 0 0 -71 -60 -53 -46 -18 -43 -244 -144 -161 -215 -221 -170 -140 -123 -129 -99 -90 -86 -107 -116 -97 -92 -86 -135 -122 -107 -68 -32 -22 -19 -28 -28 -48 -90 -99 -91 -94 -185 -148 -24 -23 -32 -22 -41 -45 -23
0 -105 -145 -119 -71 -23 -30 -19 0 -67 -56 -91 -174 -218 -244 -184 -153 -119 -137 -93 -104 -105 -126 -132 -109 -86 -85 -106 -102 -72 -54 -32 -25 -24 -16 -24 -40 -62 -84 -63 -62 -90 -42 -14 -17 -20 -20 -20 -24
0 -20 0 -6 -5 0 -115 -47 -53 -35 -99 -132 -133 -228 -240 -215 -184 -127 -156 -153 -123 -124 -223 -146 -195 -208 -106 -103 -72 -63 -52 -36 -30 -21 -16 -21 -26 -34 -44 -59 -59 -37 -50 -27 -16 -16 -15 -9 -8
0 0 0 0 0 0 -119 -37 -6 -104 -150 -196 -238 -242 -288 -310 -219 -172 -152 -148 -145 -145 -147 -137 -174 -174 -198 -192 -76 -59 -54 -36 -31 -29 -17 -15 -16 -22 -40 -44 -40 -39 -27 -18 -13 -7 -7 -8 -3
0 0 0 0 0 0 0 -59 0 -20 -179 -200 -206 -298 -351 -305 -298 -194 -151 -149 -154 -155 -169 -187 -260 -236 -133 -109 -77 -68 -54 -58 -36 -40 -35 -20 -24 -19 -37 -35 -35 -28 -25 -22 -16 -9 -4 -5 -3
0 0 0 0 0 0 0 0 0 0 0 -136 -225 -250 -281 -317 -296 -220 -175 -133 -144 -138 -162 -171 -253 -171 -115 -119 -97 -73 -69 -63 -58 -45 -41 -35 -28 -37 -35 -40 -37 -27 -24 -26 -25 -9 -12 -9 -6
0 0 0 0 0 0 0 0 0 -87 -123 -160 -159 -231 -269 -280 -262 -196 -169 -160 -143 -145 -166 -165 -183 -142 -125 -166 -131 -105 -81 -66 -57 -46 -41 -35 -27 -35 -34 -40 -41 -36 -32 -26 -18 -18 -11 -2 -9
0 0 0 0 0 0 0 0 0 -175 -188 -213 -164 -176 -278 -290 -254 -220 -233 -206 -185 -175 -197 -181 -156 -147 -147 -134 -120 -109 -84 -72 -49 -48 -37 -32 -26 -34 -29 -33 -34 -33 -33 -27 -21 -26 -19 -14 -8
Wind_Speed
6 6 nan nan 8 3 2 2 nan 8 4 6 5 1 3 9 8 7 3 6 13 13 11 8 9 9 7 7 6 10 9 9 6 7 8 10 10 10 10 10 9 9 11 12 11 9 9 7 5
6 6 nan nan 5 6 3 4 3 6 7 7 5 4 5 6 7 9 10 10 7 8 3 2 13 11 9 5 6 9 8 7 8 7 8 10 10 10 9 9 9 11 13 13 10 11 10 7 8
4 3 nan nan 8 11 7 4 9 8 2 2 1 5 5 8 8 9 8 12 11 10 7 4 5 8 6 4 5 6 5 6 8 7 8 9 9 9 10 9 9 11 11 9 10 9 6 9 10
7 nan nan nan nan nan nan nan nan nan 5 4 4 3 4 7 4 4 9 10 11 11 9 7 6 5 7 7 4 3 4 5 6 5 5 8 8 9 8 8 7 9 8 10 9 6 9 12 10
5 nan nan nan nan nan nan nan 10 8 3 3 nan 3 4 8 5 10 11 11 13 11 10 10 8 10 7 6 7 6 6 4 7 7 6 8 7 7 6 6 6 6 6 7 7 9 12 12 12
nan nan nan nan nan nan nan nan 7 7 nan nan 6 7 4 4 9 10 8 7 8 10 9 9 12 12 11 7 12 16 4 2 5 7 7 8 5 4 3 4 1 4 5 7 10 14 15 15 14
nan nan nan nan nan nan nan 5 8 nan nan nan nan nan nan 2 7 8 5 5 5 7 6 7 9 10 10 10 18 5 2 3 7 6 8 8 6 5 5 1 1 5 5 9 13 17 17 16 15
nan nan nan nan nan nan nan 7 8 nan nan nan nan nan 2 4 8 7 3 5 4 5 8 6 11 9 9 10 nan 2 2 4 6 11 13 11 10 1 9 4 4 5 5 10 17 19 20 15 14
6 10 nan nan nan nan 14 12 nan nan nan nan nan nan nan 11 10 7 4 3 5 4 3 2 6 11 10 9 8 4 6 5 8 15 19 17 5 4 9 8 4 4 4 9 17 17 17 13 14
5 7 nan nan nan nan 15 16 15 nan nan nan nan nan nan 9 9 7 5 5 3 2 2 3 6 9 9 8 9 11 11 7 8 15 15 9 2 7 13 9 7 6 4 9 15 18 16 18 16
1 2 1 1 nan 13 12 nan 7 nan nan nan nan nan nan nan 5 5 5 6 4 4 2 5 6 8 8 10 10 9 9 8 7 9 11 5 2 5 14 12 9 9 6 11 14 18 14 10 12
3 6 3 6 nan nan nan 12 6 nan nan nan nan nan nan nan nan nan 7 nan nan nan 1 2 6 7 8 13 14 14 11 8 8 8 9 6 4 6 16 15 13 9 10 14 16 17 13 13 14
2 7 8 9 nan nan nan nan 7 nan nan nan nan nan nan nan nan nan nan nan nan nan nan 2 3 4 5 14 18 16 11 10 14 12 10 8 6 10 17 17 13 11 12 12 16 20 14 13 16
5 7 10 9 7 4 nan nan nan 5 nan 8 nan nan nan nan nan nan nan nan nan nan nan nan 1 4 3 7 11 13 18 14 16 19 6 8 7 13 17 16 14 11 11 10 11 16 11 11 14
8 9 7 6 8 6 9 8 10 nan 6 nan nan nan nan nan nan nan nan nan nan nan nan nan nan nan 5 5 nan 15 20 13 13 7 9 9 10 9 16 16 15 14 12 11 6 10 8 8 11
10 10 7 6 5 8 8 5 13 nan 2 3 6 nan nan nan nan nan nan nan nan nan nan nan nan nan 7 4 2 nan nan 6 10 10 10 12 14 17 15 16 15 14 13 11 7 9 9 6 4
nan nan 6 nan 7 7 8 1 12 nan 7 8 nan 4 nan nan nan nan nan nan nan nan nan nan nan nan nan 2 nan 4 5 8 13 13 8 8 15 15 15 14 13 14 14 11 10 10 11 6 4
nan nan nan nan 8 6 9 4 nan 10 nan nan nan 7 nan nan nan nan nan nan nan nan nan 4 nan nan nan nan 2 5 8 11 11 9 11 14 14 12 11 12 11 12 11 9 8 8 10 8 8
nan nan nan nan 13 13 7 0 1 8 10 13 8 6 nan nan 10 6 nan nan nan nan nan 5 nan nan nan nan nan nan 4 8 9 10 13 11 10 14 11 11 10 9 11 10 5 6 7 7 6
nan nan nan nan 10 9 10 13 10 7 13 13 13 6 2 nan 7 nan nan nan nan 8 7 5 4 3 3 nan nan 5 3 5 7 10 10 7 5 2 10 11 10 10 10 9 7 6 5 8 6
nan nan nan nan 10 9 7 5 5 5 9 11 14 5 7 5 nan nan nan nan nan 6 5 3 4 3 3 nan nan 7 8 10 6 7 8 4 2 1 2 6 13 13 13 11 7 6 6 6 7
nan nan nan nan nan nan 6 10 6 3 4 8 12 7 10 6 1 nan nan nan nan 6 6 5 5 3 2 nan nan 5 4 3 2 2 2 3 3 3 3 4 6 15 16 15 10 9 8 8 7
nan nan nan nan nan 8 10 10 10 12 4 12 11 15 nan 6 2 nan nan 1 1 6 6 6 5 6 3 3 1 5 5 6 5 5 3 3 4 2 3 2 4 5 19 17 12 9 8 6 7
nan nan nan 18 14 2 nan 8 nan 7 5 7 1 13 6 2 2 5 nan 4 3 2 6 9 7 5 5 4 4 4 3 4 6 7 7 6 4 3 1 0 1 7 18 16 15 11 9 9 9
nan nan nan nan 18 nan nan nan nan nan nan 4 10 2 9 nan 15 3 nan nan 5 7 7 4 11 10 4 5 2 3 2 5 6 6 8 7 6 4 2 2 1 2 12 15 13 14 12 12 9
nan nan nan nan nan nan 16 nan nan nan nan nan nan nan 7 11 10 1 5 5 8 5 6 9 15 13 7 4 2 1 3 6 9 8 11 11 9 7 4 4 4 2 6 10 11 15 16 16 14
nan nan nan nan nan nan nan nan nan nan nan nan nan nan nan 12 9 10 11 7 4 4 8 15 14 nan 2 3 2 2 2 4 8 9 11 13 12 11 8 8 7 6 6 9 12 13 14 16 16
nan nan nan nan nan nan nan nan nan nan nan nan 5 5 7 9 14 13 17 13 8 8 9 12 19 17 6 2 4 6 5 5 9 11 12 12 13 12 12 10 10 9 10 11 12 13 12 13 14
nan nan nan nan nan nan nan nan nan nan nan 3 6 7 10 14 15 14 15 13 9 12 13 14 10 6 4 5 7 6 7 8 9 10 11 13 12 13 12 12 12 12 11 11 13 12 10 10 11
nan nan nan nan nan nan nan nan nan nan 7 8 12 8 7 9 13 5 11 16 19 16 17 15 12 9 7 9 13 14 8 6 7 9 10 13 13 15 14 16 15 17 17 15 13 13 12 13 11
Wind_Direction
354 357 nan nan 28 54 119 166 nan 272 272 178 317 112 82 180 179 187 214 188 251 244 220 219 227 232 238 270 280 294 275 280 326 325 332 321 350 348 349 335 336 346 350 345 352 0 3 3 352
349 9 nan nan 319 326 20 202 238 257 275 270 227 211 195 203 204 258 274 285 287 298 167 263 239 206 231 275 267 284 266 289 324 337 326 323 349 343 328 333 350 353 358 355 360 9 356 358 12
350 49 nan nan 336 300 337 279 328 293 302 26 336 210 190 193 208 297 252 310 312 295 288 328 287 193 214 241 252 289 266 285 321 329 321 321 345 339 335 345 1 356 4 358 5 9 8 38 40
353 nan nan nan nan nan nan nan nan nan 286 203 269 228 216 151 275 239 292 301 282 273 272 288 296 230 219 229 248 256 297 278 275 293 304 322 335 340 334 3 352 10 7 10 14 17 44 57 62
328 nan nan nan nan nan nan nan 327 334 322 341 nan 298 230 176 230 283 289 296 299 288 260 283 286 219 220 207 234 231 282 279 253 264 294 314 321 338 342 13 8 18 12 21 29 47 55 70 85
nan nan nan nan nan nan nan nan 291 314 nan nan 275 269 215 224 280 270 283 291 297 284 251 274 271 243 222 212 235 202 259 284 237 245 266 289 293 316 8 15 358 50 22 53 55 58 61 71 85
nan nan nan nan nan nan nan 235 240 nan nan nan nan nan nan 262 274 265 278 290 287 258 252 281 217 193 207 238 257 198 112 179 235 261 253 264 269 234 96 183 101 63 41 62 58 59 63 77 81
nan nan nan nan nan nan nan 235 266 nan nan nan nan nan 291 346 299 290 292 267 263 269 242 266 207 217 224 259 nan 81 290 216 245 248 259 256 259 218 138 168 119 65 53 63 67 66 70 79 88
1 14 nan nan nan nan 187 244 nan nan nan nan nan nan nan 311 321 318 297 271 259 219 241 202 196 209 230 265 301 23 265 272 256 261 259 242 214 134 129 178 126 81 67 73 71 67 77 78 90
43 46 nan nan nan nan 238 237 282 nan nan nan nan nan nan 324 344 339 347 330 325 302 288 243 227 223 245 234 255 245 228 233 248 257 262 250 338 155 153 168 156 107 109 84 76 76 76 78 84
325 109 153 246 nan 326 240 nan 230 nan nan nan nan nan nan nan 10 31 44 39 32 16 221 201 210 211 222 228 232 242 237 224 227 244 278 287 307 150 151 151 129 102 93 84 70 68 72 76 75
275 181 271 288 nan nan nan 197 266 nan nan nan nan nan nan nan nan nan 46 nan nan nan 31 202 234 224 236 244 233 243 246 241 227 251 264 289 273 167 159 152 148 119 91 82 84 82 74 65 51
224 184 230 282 nan nan nan nan 229 nan nan nan nan nan nan nan nan nan nan nan nan nan nan 337 224 213 254 257 252 227 243 227 235 259 250 257 247 175 160 158 146 134 114 97 88 84 74 71 66
246 232 245 271 327 303 nan nan nan 243 nan 289 nan nan nan nan nan nan nan nan nan nan nan nan 234 193 279 288 225 210 217 234 233 251 225 213 152 167 167 154 148 147 133 109 94 93 86 77 71
264 239 233 271 302 319 326 326 2 nan 310 nan nan nan nan nan nan nan nan nan nan nan nan nan nan nan 338 343 nan 203 223 231 224 235 208 204 178 192 176 156 151 149 145 117 111 110 91 94 75
238 238 226 273 319 291 316 319 352 nan 312 51 16 nan nan nan nan nan nan nan nan nan nan nan nan nan 335 344 118 nan nan 205 218 218 213 176 169 168 173 166 151 147 134 129 136 136 127 141 108
nan nan 231 nan 292 280 354 320 9 nan 269 240 nan 320 nan nan nan nan nan nan nan nan nan nan nan nan nan 22 nan 159 131 147 153 149 170 153 169 164 173 169 159 148 140 142 141 164 155 173 178
nan nan nan nan 281 316 319 17 nan 12 nan nan nan 273 nan nan nan nan nan nan nan nan nan 306 nan nan nan nan 130 152 148 133 152 146 148 150 155 154 172 172 163 156 154 159 156 177 179 183 195
nan nan nan nan 285 306 318 93 70 13 28 28 13 226 nan nan 100 89 nan nan nan nan nan 297 nan nan nan nan nan nan 123 128 131 128 142 148 172 168 161 160 170 180 173 176 161 160 184 189 203
nan nan nan nan 290 318 240 137 131 37 41 35 29 44 140 nan 137 nan nan nan nan 296 292 268 232 239 210 nan nan 195 168 127 137 144 157 152 151 108 184 186 169 188 204 190 167 156 186 203 224
nan nan nan nan 266 257 233 164 126 79 57 60 77 125 147 135 nan nan nan nan nan 318 327 301 244 203 188 nan nan 206 197 185 193 180 180 192 148 73 178 196 190 184 195 215 184 174 175 207 240
nan nan nan nan nan nan 252 201 190 105 72 34 32 58 184 192 144 nan nan nan nan 360 328 312 294 283 199 nan nan 190 207 176 155 191 226 245 264 248 243 221 200 190 198 218 204 199 204 198 219
nan nan nan nan nan 231 283 224 232 228 208 39 28 27 nan 156 171 nan nan 214 258 292 322 319 316 316 308 282 254 252 205 206 198 191 220 214 232 227 209 194 238 225 204 209 208 206 214 206 208
nan nan nan 278 286 337 nan 224 nan 274 270 225 23 39 39 185 171 269 nan 263 241 281 347 292 300 294 307 308 340 320 296 232 204 218 212 214 239 249 221 177 176 196 192 197 198 203 221 226 217
nan nan nan nan 292 nan nan nan nan nan nan 161 187 330 8 nan 253 287 nan nan 273 303 319 273 244 225 229 286 333 353 0 275 247 208 231 238 244 252 295 314 311 132 168 185 201 207 208 211 229
nan nan nan nan nan nan 248 nan nan nan nan nan nan nan 284 344 309 288 287 261 276 258 313 311 260 237 254 270 20 45 29 245 244 237 222 230 235 247 251 252 261 249 194 208 218 219 217 223 230
nan nan nan nan nan nan nan nan nan nan nan nan nan nan nan 321 315 282 284 287 291 226 307 318 308 nan 290 259 357 351 325 307 269 254 241 234 232 234 251 250 236 230 240 233 231 232 227 226 228
nan nan nan nan nan nan nan nan nan nan nan nan 276 258 289 320 299 272 276 285 273 242 278 313 310 13 48 29 339 317 304 293 292 280 266 254 244 241 237 246 242 233 230 245 250 242 227 232 236
nan nan nan nan nan nan nan nan nan nan nan 275 297 304 293 309 310 274 261 261 312 281 293 303 323 351 357 293 306 303 303 288 276 281 277 272 268 262 256 254 260 260 255 244 249 255 245 240 235
nan nan nan nan nan nan nan nan nan nan 209 274 300 263 292 307 323 286 243 249 263 285 275 291 296 301 288 293 299 305 310 282 288 295 283 282 280 275 274 267 260 261 265 266 259 254 256 265 251